DW8482 Tortoreto Alto IT current weather conditions

sailwx.info

Wind from 240 at 6 knots gusting 7

Air temperature 11.1° C
Dewpoint 8.5° C

Last reported at 2014-Oct-31 04:47 UTC.
Time now 2014-Oct-31 06:09 UTC

Location: N 42°48' E 013°54'.
View on Google Maps.

See reports from other nearby stations

  
Tides and Currents Weather Stations Pressure Air Temp Water Temp Dewpoint Dewpoint Depression Visibility Wind Speed Wind Dir Waves Ship Positions
date/time (UTC)wind fromknots sea level pressurealtimeterstation pressurevisibilityair tempwater tempwave heightnotes
2014-Oct-31 04:47 240 6 gusting 7 11.1
2014-Oct-31 04:42 257 3 gusting 6 11.1
2014-Oct-31 04:37 230 4 gusting 8 11.1
2014-Oct-31 04:32 277 5 gusting 6 11.1
2014-Oct-31 04:27 296 3 gusting 5 11.1
2014-Oct-31 04:22 268 3 gusting 8 11.1
2014-Oct-31 04:17 287 4 gusting 7 11.1
2014-Oct-31 04:12 234 2 gusting 5 11.1
2014-Oct-31 04:07 275 1 gusting 6 11.1
2014-Oct-31 04:02 244 2 gusting 8 11.1
2014-Oct-31 03:57 269 4 gusting 7 11.1
2014-Oct-31 03:52 258 3 gusting 7 11.1
2014-Oct-31 03:47 234 4 gusting 6 11.1
2014-Oct-31 03:42 265 1 gusting 7 11.1
2014-Oct-31 03:37 255 6 gusting 6 11.1
2014-Oct-31 03:32 257 3 gusting 8 11.1
2014-Oct-31 03:27 302 11.7
2014-Oct-31 03:22 266 4 gusting 7 11.7
2014-Oct-31 03:17 275 6 gusting 6 11.7
2014-Oct-31 03:12 263 1 gusting 6 11.7
2014-Oct-31 03:07 248 7 gusting 10 11.7
2014-Oct-31 03:02 313 2 gusting 7 11.7
2014-Oct-31 02:57 161 11.7
2014-Oct-31 02:52 273 0 gusting 6 11.7
2014-Oct-31 02:47 295 3 gusting 6 11.7
2014-Oct-31 02:42 273 7 gusting 7 11.7
2014-Oct-31 02:37 11.7
2014-Oct-31 02:32 005 11.7
2014-Oct-31 02:27 309 11.7
2014-Oct-31 02:22 314 7 gusting 10 11.7
2014-Oct-31 02:17 286 4 gusting 6 11.7
2014-Oct-31 02:12 305 11.7
2014-Oct-31 02:07 316 5 gusting 6 11.7
2014-Oct-31 02:02 296 11.7
2014-Oct-31 01:57 279 5 gusting 8 11.7
2014-Oct-31 01:52 296 5 gusting 8 11.7
2014-Oct-31 01:47 283 0 gusting 6 11.7
2014-Oct-31 01:42 276 4 gusting 6 11.7
2014-Oct-31 01:37 264 3 gusting 7 11.7
2014-Oct-31 01:32 292 2 gusting 7 11.7
2014-Oct-31 01:27 307 5 gusting 8 11.7
2014-Oct-31 01:22 286 5 gusting 9 11.7
2014-Oct-31 01:17 288 10 gusting 11 11.7
2014-Oct-31 01:12 296 5 gusting 8 11.7
2014-Oct-31 01:07 277 6 gusting 10 11.7
2014-Oct-31 01:02 269 0 gusting 9 11.7
2014-Oct-31 00:57 312 3 gusting 9 11.7
2014-Oct-31 00:52 250 4 gusting 8 11.7
2014-Oct-31 00:47 294 6 gusting 8 11.7
2014-Oct-31 00:42 321 1 gusting 6 12.2
2014-Oct-31 00:37 276 4 gusting 9 12.2
2014-Oct-31 00:32 252 4 gusting 8 12.2
2014-Oct-31 00:27 246 4 gusting 8 12.2
2014-Oct-31 00:22 12.2
2014-Oct-31 00:17 318 3 gusting 9 12.2
2014-Oct-31 00:12 317 12.2
2014-Oct-31 00:09 252 2 gusting 8 11.7
2014-Oct-30 23:57 331 1 gusting 7 11.7
2014-Oct-30 23:52 285 2 gusting 10 11.7
2014-Oct-30 23:47 258 1 gusting 10 11.7
2014-Oct-30 23:42 255 0 gusting 8 11.7
2014-Oct-30 23:37 300 2 gusting 6 11.7
2014-Oct-30 23:32 296 2 gusting 6 11.7
2014-Oct-30 23:27 321 1 gusting 7 11.7
2014-Oct-30 23:22 291 3 gusting 6 11.7
2014-Oct-30 23:17 288 5 gusting 6 11.7
2014-Oct-30 23:12 294 1 gusting 7 11.7
2014-Oct-30 23:07 248 11.7
2014-Oct-30 23:02 303 3 gusting 7 11.7
2014-Oct-30 22:57 240 11.7
2014-Oct-30 22:52 259 3 gusting 7 11.7
2014-Oct-30 22:47 241 3 gusting 6 11.7
2014-Oct-30 22:42 266 2 gusting 6 11.7
2014-Oct-30 22:37 300 2 gusting 7 11.7
2014-Oct-30 22:32 247 0 gusting 7 11.7
2014-Oct-30 22:27 249 1 gusting 7 11.7
2014-Oct-30 22:22 313 6 gusting 9 11.7
2014-Oct-30 22:17 242 1 gusting 7 11.7
2014-Oct-30 22:12 317 1 gusting 6 11.7
2014-Oct-30 22:07 257 11.7
2014-Oct-30 22:02 257 3 gusting 9 11.7
2014-Oct-30 21:57 253 3 gusting 10 11.7
2014-Oct-30 21:52 274 3 gusting 5 11.7
2014-Oct-30 21:47 236 1 gusting 6 11.7
2014-Oct-30 21:42 278 12.2
2014-Oct-30 21:37 303 1 gusting 9 12.2
2014-Oct-30 21:32 221 2 gusting 6 12.2
2014-Oct-30 21:27 277 5 gusting 8 12.2
2014-Oct-30 21:22 209 0 gusting 7 12.2
2014-Oct-30 21:17 292 5 gusting 8 12.2
2014-Oct-30 21:12 278 4 gusting 8 12.2
2014-Oct-30 21:07 319 6 gusting 7 12.2
2014-Oct-30 21:02 320 7 gusting 9 12.2
2014-Oct-30 20:57 252 2 gusting 9 12.2
2014-Oct-30 20:52 291 4 gusting 10 12.2
2014-Oct-30 20:47 312 3 gusting 7 12.2
2014-Oct-30 20:42 291 2 gusting 9 12.2
2014-Oct-30 20:37 263 1 gusting 8 12.2
2014-Oct-30 20:32 270 4 gusting 6 12.2
2014-Oct-30 20:27 247 3 gusting 8 12.2
2014-Oct-30 20:22 313 0 gusting 9 12.2
2014-Oct-30 20:17 268 2 gusting 13 12.2
2014-Oct-30 20:12 279 6 gusting 13 12.2
2014-Oct-30 20:07 232 1 gusting 9 12.2
2014-Oct-30 20:02 268 7 gusting 10 12.2
2014-Oct-30 19:57 292 6 gusting 9 12.2
2014-Oct-30 19:52 268 5 gusting 12 12.2
2014-Oct-30 19:47 242 2 gusting 8 12.2
2014-Oct-30 19:42 286 3 gusting 6 12.2
2014-Oct-30 19:37 270 1 gusting 6 12.2
2014-Oct-30 19:32 310 4 gusting 8 12.2
2014-Oct-30 19:27 229 0 gusting 6 12.2
2014-Oct-30 19:22 232 1 gusting 7 12.2
2014-Oct-30 19:17 287 3 gusting 9 12.2
2014-Oct-30 19:12 274 3 gusting 11 12.2
2014-Oct-30 19:07 317 8 gusting 12 12.2
2014-Oct-30 19:02 277 4 gusting 7 12.2
2014-Oct-30 18:57 264 1 gusting 6 12.2
2014-Oct-30 18:52 286 4 gusting 6 12.2
2014-Oct-30 18:47 288 5 gusting 7 12.2
2014-Oct-30 18:42 211 12.2
2014-Oct-30 18:37 329 4 gusting 8 12.2
2014-Oct-30 18:27 242 5 gusting 9 12.2
2014-Oct-30 18:22 227 1 gusting 11 12.2
2014-Oct-30 18:17 228 1 gusting 8 12.2
2014-Oct-30 18:12 275 4 gusting 6 12.2
2014-Oct-30 18:07 219 1 gusting 8 12.2
2014-Oct-30 18:02 226 2 gusting 7 12.2
2014-Oct-30 17:57 298 4 gusting 10 12.2
2014-Oct-30 17:52 277 2 gusting 8 12.2
2014-Oct-30 17:47 252 0 gusting 9 12.2
2014-Oct-30 17:42 278 4 gusting 8 12.2
2014-Oct-30 17:37 228 4 gusting 7 12.8
2014-Oct-30 17:32 232 0 gusting 8 12.8
2014-Oct-30 17:27 250 5 gusting 8 12.8
2014-Oct-30 17:22 281 5 gusting 9 12.8
2014-Oct-30 17:17 284 2 gusting 9 12.8
2014-Oct-30 17:12 314 5 gusting 11 12.8
2014-Oct-30 17:07 245 1 gusting 8 12.8
2014-Oct-30 17:02 284 3 gusting 12 12.8
2014-Oct-30 16:57 306 6 gusting 11 12.8
2014-Oct-30 16:52 310 4 gusting 9 12.8
2014-Oct-30 16:47 278 6 gusting 10 12.8
2014-Oct-30 16:42 286 4 gusting 11 13.3
2014-Oct-30 16:37 288 7 gusting 10 13.3
2014-Oct-30 16:32 298 1 gusting 10 13.3
2014-Oct-30 16:27 316 6 gusting 11 13.3
2014-Oct-30 16:22 295 8 gusting 11 13.3
2014-Oct-30 16:17 286 5 gusting 11 13.3
2014-Oct-30 16:12 306 2 gusting 8 13.3
2014-Oct-30 16:07 306 2 gusting 12 13.3
2014-Oct-30 16:02 244 4 gusting 7 13.3
2014-Oct-30 15:57 318 8 gusting 9 13.3
2014-Oct-30 15:52 280 9 gusting 9 13.3
2014-Oct-30 15:47 294 10 gusting 10 13.3
2014-Oct-30 15:42 244 2 gusting 11 13.3
2014-Oct-30 15:37 317 4 gusting 10 13.9
2014-Oct-30 15:32 297 4 gusting 10 13.9
2014-Oct-30 15:27 331 6 gusting 10 13.9
2014-Oct-30 15:22 316 3 gusting 11 13.9
2014-Oct-30 15:17 273 6 gusting 13 13.9
2014-Oct-30 15:12 297 6 gusting 15 13.9
2014-Oct-30 15:07 298 11 gusting 15 13.9
2014-Oct-30 15:02 320 11 gusting 13 13.9
2014-Oct-30 14:57 337 1 gusting 19 14.4
2014-Oct-30 14:52 292 6 gusting 18 14.4
2014-Oct-30 14:47 283 9 gusting 18 14.4
2014-Oct-30 14:42 294 8 gusting 12 14.4
2014-Oct-30 14:37 271 8 gusting 15 14.4
2014-Oct-30 14:32 279 8 gusting 14 14.4
2014-Oct-30 14:27 296 9 gusting 13 14.4
2014-Oct-30 14:22 271 6 gusting 13 14.4
2014-Oct-30 14:17 304 5 gusting 15 14.4
2014-Oct-30 14:12 304 6 gusting 15 15.0
2014-Oct-30 14:07 295 6 gusting 7 15.0
2014-Oct-30 14:02 340 2 gusting 8 15.0
2014-Oct-30 13:57 252 4 gusting 6 15.0
2014-Oct-30 13:52 279 5 gusting 13 14.4
2014-Oct-30 13:47 286 6 gusting 13 14.4
2014-Oct-30 13:42 265 5 gusting 10 15.0
2014-Oct-30 13:37 284 4 gusting 10 15.0
2014-Oct-30 13:32 254 6 gusting 7 14.4
2014-Oct-30 13:27 325 6 gusting 9 14.4
2014-Oct-30 13:22 256 4 gusting 9 14.4
2014-Oct-30 13:17 272 6 gusting 13 15.0
2014-Oct-30 13:12 276 8 gusting 15 15.0
2014-Oct-30 13:07 261 9 gusting 14 15.6
2014-Oct-30 13:02 305 14 gusting 14 15.0
2014-Oct-30 12:57 318 4 gusting 13 15.0
2014-Oct-30 12:52 313 7 gusting 14 15.0
2014-Oct-30 12:47 311 8 gusting 13 15.0
2014-Oct-30 12:42 340 5 gusting 15 15.0
2014-Oct-30 12:37 295 9 gusting 16 15.0
2014-Oct-30 12:32 325 9 gusting 13 15.0
2014-Oct-30 12:27 15.0
2014-Oct-30 12:22 301 6 gusting 14 15.0
2014-Oct-30 12:17 267 5 gusting 14 15.0
2014-Oct-30 12:12 311 6 gusting 14 15.0
2014-Oct-30 12:07 276 3 gusting 15 15.0
2014-Oct-30 12:02 257 2 gusting 10 15.0
2014-Oct-30 11:57 319 8 gusting 13 15.0
2014-Oct-30 11:52 305 6 gusting 13 14.4
2014-Oct-30 11:47 330 6 gusting 16 14.4
2014-Oct-30 11:42 322 10 gusting 11 14.4
2014-Oct-30 11:37 277 10 gusting 14 14.4
2014-Oct-30 11:32 309 9 gusting 13 14.4
2014-Oct-30 11:27 350 3 gusting 14 14.4
2014-Oct-30 11:22 300 6 gusting 15 14.4
2014-Oct-30 11:17 284 3 gusting 15 14.4
2014-Oct-30 11:12 291 6 gusting 13 14.4
2014-Oct-30 11:07 285 9 gusting 14 13.9
2014-Oct-30 11:02 281 3 gusting 13 13.9
2014-Oct-30 10:57 277 5 gusting 14 13.9
2014-Oct-30 10:52 284 2 gusting 12 13.9
2014-Oct-30 10:47 020 3 gusting 10 13.9
2014-Oct-30 10:42 308 3 gusting 12 13.9
2014-Oct-30 10:37 317 5 gusting 13 13.9
2014-Oct-30 10:32 285 9 gusting 13 13.9
2014-Oct-30 10:27 236 2 gusting 12 13.3
2014-Oct-30 10:22 234 3 gusting 11 13.3
2014-Oct-30 10:17 302 7 gusting 10 13.3
2014-Oct-30 10:12 319 4 gusting 14 13.3
2014-Oct-30 10:07 276 9 gusting 9 13.3
2014-Oct-30 10:02 309 4 gusting 13 13.3
2014-Oct-30 09:57 290 3 gusting 12 13.3
2014-Oct-30 09:52 313 6 gusting 9 12.8
2014-Oct-30 09:47 288 6 gusting 12 12.8
2014-Oct-30 09:42 279 7 gusting 13 12.8
2014-Oct-30 09:37 276 5 gusting 8 12.8
2014-Oct-30 09:32 305 2 gusting 9 12.8
2014-Oct-30 09:27 296 6 gusting 11 12.8
2014-Oct-30 09:22 342 0 gusting 10 12.8
2014-Oct-30 09:17 291 6 gusting 13 12.8
2014-Oct-30 09:12 274 6 gusting 8 12.8
2014-Oct-30 09:07 279 3 gusting 10 12.2
2014-Oct-30 09:02 292 4 gusting 11 12.2
2014-Oct-30 08:57 322 6 gusting 10 12.2
2014-Oct-30 08:52 294 3 gusting 8 12.2
2014-Oct-30 08:47 273 0 gusting 13 12.2
2014-Oct-30 08:42 284 9 gusting 12 12.2
2014-Oct-30 08:37 289 7 gusting 13 12.2
2014-Oct-30 08:32 338 3 gusting 9 12.2
2014-Oct-30 08:27 005 2 gusting 10 12.2
2014-Oct-30 08:22 285 7 gusting 10 12.2
2014-Oct-30 08:17 294 4 gusting 13 11.7
2014-Oct-30 08:12 295 6 gusting 11 11.7
2014-Oct-30 08:07 248 6 gusting 15 11.7
2014-Oct-30 08:02 295 7 gusting 9 11.7
2014-Oct-30 07:57 281 6 gusting 7 11.7
2014-Oct-30 07:52 284 0 gusting 11 11.7
2014-Oct-30 07:47 280 6 gusting 10 11.1
2014-Oct-30 07:42 281 6 gusting 9 11.1
2014-Oct-30 07:37 267 4 gusting 9 11.1
2014-Oct-30 07:32 293 6 gusting 12 11.1
2014-Oct-30 07:27 306 6 gusting 13 11.1
2014-Oct-30 07:22 275 5 gusting 13 11.1
2014-Oct-30 07:17 310 0 gusting 8 11.1
2014-Oct-30 07:12 310 2 gusting 9 11.1
2014-Oct-30 07:07 278 6 gusting 7 11.1
2014-Oct-30 07:02 315 2 gusting 8 11.1
2014-Oct-30 06:57 313 5 gusting 11 11.1
2014-Oct-30 06:52 281 5 gusting 11 11.1
2014-Oct-30 06:47 296 7 gusting 9 11.1
2014-Oct-30 06:42 304 2 gusting 9 10.6
2014-Oct-30 06:37 284 4 gusting 10 10.6
2014-Oct-30 06:32 285 6 gusting 10 10.6
2014-Oct-30 06:27 290 3 gusting 10 10.6
2014-Oct-30 06:22 284 8 gusting 8 10.6
2014-Oct-30 06:17 286 3 gusting 8 10.6
2014-Oct-30 06:12 301 5 gusting 8 10.6
2014-Oct-30 06:07 281 3 gusting 10 10.6
2014-Oct-30 06:02 314 6 gusting 11 10.6
2014-Oct-30 05:57 325 4 gusting 12 10.6
2014-Oct-30 05:52 293 6 gusting 10 10.6
2014-Oct-30 05:47 340 3 gusting 10 10.6
2014-Oct-30 05:42 287 2 gusting 9 10.6
2014-Oct-30 05:37 311 6 gusting 6 10.6
2014-Oct-30 05:32 317 2 gusting 8 10.6
2014-Oct-30 05:27 284 10.6
2014-Oct-30 05:22 297 1 gusting 10 10.6
2014-Oct-30 05:17 286 5 gusting 7 10.6
2014-Oct-30 05:12 277 4 gusting 7 10.6
2014-Oct-30 05:07 316 6 gusting 6 10.6
2014-Oct-30 05:02 300 4 gusting 7 10.6
2014-Oct-30 04:57 281 10.6
2014-Oct-30 04:52 331 1 gusting 7 10.6
2014-Oct-30 04:47 285 1 gusting 7 10.6
2014-Oct-30 04:42 296 3 gusting 5 10.6
2014-Oct-30 04:37 296 0 gusting 5 10.6
2014-Oct-30 04:32 309 3 gusting 6 10.6
2014-Oct-30 04:27 301 4 gusting 7 10.6
2014-Oct-30 04:22 309 3 gusting 6 10.6
2014-Oct-30 04:17 298 0 gusting 6 10.6
2014-Oct-30 04:12 281 5 gusting 6 10.6
2014-Oct-30 04:07 279 1 gusting 5 10.6
2014-Oct-30 04:02 289 1 gusting 5 11.1
2014-Oct-30 03:57 291 3 gusting 5 11.1
2014-Oct-30 03:52 297 5 gusting 8 10.6
2014-Oct-30 03:47 314 6 gusting 7 10.6
2014-Oct-30 03:42 299 0 gusting 4 10.6
2014-Oct-30 03:37 286 2 gusting 5 10.0
2014-Oct-30 03:32 266 4 gusting 5 10.0
2014-Oct-30 03:27 260 3 gusting 6 10.6
2014-Oct-30 03:22 271 3 gusting 4 10.6
2014-Oct-30 03:17 282 2 gusting 5 10.6
2014-Oct-30 03:12 271 4 gusting 5 10.6
2014-Oct-30 03:07 263 4 gusting 6 10.6
2014-Oct-30 03:02 268 4 gusting 6 11.1
2014-Oct-30 02:57 296 3 gusting 6 10.6
2014-Oct-30 02:52 301 2 gusting 6 10.6
2014-Oct-30 02:47 292 3 gusting 5 10.6
2014-Oct-30 02:42 296 4 gusting 5 10.6
2014-Oct-30 02:37 273 3 gusting 6 10.6
2014-Oct-30 02:32 278 1 gusting 5 11.1
2014-Oct-30 02:27 290 2 gusting 4 11.1
2014-Oct-30 02:22 288 2 gusting 4 11.1
2014-Oct-30 02:17 282 3 gusting 4 11.1
2014-Oct-30 02:12 279 1 gusting 4 11.1
2014-Oct-30 02:07 265 3 gusting 5 11.1
2014-Oct-30 02:02 265 3 gusting 4 11.1
2014-Oct-30 01:57 275 3 gusting 4 11.1
2014-Oct-30 01:52 269 1 gusting 5 11.1
2014-Oct-30 01:47 271 2 gusting 4 11.1
2014-Oct-30 01:42 272 2 gusting 6 11.1
2014-Oct-30 01:37 261 4 gusting 6 11.1
2014-Oct-30 01:32 267 5 gusting 5 11.1
2014-Oct-30 01:27 273 1 gusting 5 11.1
2014-Oct-30 01:22 265 3 gusting 6 11.1
2014-Oct-30 01:17 281 3 gusting 4 11.1
2014-Oct-30 01:12 286 2 gusting 4 10.6
2014-Oct-30 01:07 254 4 gusting 6 11.1
2014-Oct-30 01:02 261 4 gusting 5 11.1
2014-Oct-30 00:57 259 3 gusting 4 11.1
2014-Oct-30 00:52 267 2 gusting 5 11.1
2014-Oct-30 00:47 263 3 gusting 4 11.1
2014-Oct-30 00:42 269 3 gusting 4 11.1
2014-Oct-30 00:37 261 3 gusting 5 11.1
2014-Oct-30 00:32 265 4 gusting 6 11.1
2014-Oct-30 00:27 268 1 gusting 5 11.1
2014-Oct-30 00:22 265 3 gusting 6 11.1
2014-Oct-30 00:17 262 3 gusting 5 11.1
2014-Oct-30 00:12 265 2 gusting 5 11.1
2014-Oct-30 00:07 278 3 gusting 6 11.1
2014-Oct-30 00:02 300 0 gusting 5 11.1
2014-Oct-29 23:57 255 0 gusting 5 11.1
2014-Oct-29 23:52 273 2 gusting 6 11.1
2014-Oct-29 23:47 265 3 gusting 5 11.1
2014-Oct-29 23:42 267 2 gusting 4 11.1
2014-Oct-29 23:37 260 2 gusting 4 11.1
2014-Oct-29 23:32 257 3 gusting 4 11.1
2014-Oct-29 23:27 254 0 gusting 6 11.1
2014-Oct-29 23:22 256 3 gusting 6 11.1
2014-Oct-29 23:17 250 4 gusting 6 11.1
2014-Oct-29 23:12 271 1 gusting 5 11.7
2014-Oct-29 23:07 267 2 gusting 4 11.7
2014-Oct-29 23:02 266 2 gusting 4 11.7
2014-Oct-29 22:57 266 4 gusting 4 11.1
2014-Oct-29 22:52 259 2 gusting 4 11.1
2014-Oct-29 22:47 259 3 gusting 4 11.1
2014-Oct-29 22:42 259 2 gusting 4 11.1
2014-Oct-29 22:37 256 11.1
2014-Oct-29 22:32 252 2 gusting 5 11.1
2014-Oct-29 22:27 248 0 gusting 4 10.6
2014-Oct-29 22:22 249 3 gusting 4 11.1
2014-Oct-29 22:17 253 3 gusting 6 11.1
2014-Oct-29 22:12 255 2 gusting 6 11.1
2014-Oct-29 22:07 250 4 gusting 5 11.1
2014-Oct-29 22:02 265 3 gusting 5 11.7
2014-Oct-29 21:57 258 11.7
2014-Oct-29 21:52 259 2 gusting 3 11.7
2014-Oct-29 21:47 247 1 gusting 2 11.7
2014-Oct-29 21:42 257 2 gusting 3 11.7
2014-Oct-29 21:37 265 11.7
2014-Oct-29 21:32 264 11.1
2014-Oct-29 21:27 267 11.1
2014-Oct-29 21:22 244 11.7
2014-Oct-29 21:17 242 11.7
2014-Oct-29 21:12 251 2 gusting 4 11.7
2014-Oct-29 21:07 259 1 gusting 5 11.7
2014-Oct-29 21:02 252 3 gusting 4 11.7
2014-Oct-29 20:57 257 0 gusting 3 12.2
2014-Oct-29 20:52 257 2 gusting 4 12.2
2014-Oct-29 20:47 257 3 gusting 3 12.2
2014-Oct-29 20:42 254 1 gusting 3 12.2
2014-Oct-29 20:37 254 1 gusting 3 12.2
2014-Oct-29 20:32 254 0 gusting 4 12.2
2014-Oct-29 20:27 264 1 gusting 3 12.2
2014-Oct-29 20:22 262 2 gusting 3 12.2
2014-Oct-29 20:17 262 2 gusting 3 12.2
2014-Oct-29 20:12 261 0 gusting 3 12.2
2014-Oct-29 20:07 262 12.2
2014-Oct-29 20:02 263 12.2
2014-Oct-29 19:57 269 1 gusting 4 12.2
2014-Oct-29 19:52 260 12.2
2014-Oct-29 19:47 260 0 gusting 4 12.8
2014-Oct-29 19:42 252 1 gusting 3 12.8
2014-Oct-29 19:37 252 2 gusting 3 12.8
2014-Oct-29 19:32 261 0 gusting 3 12.8
2014-Oct-29 19:27 261 1 gusting 3 12.2
2014-Oct-29 19:22 261 1 gusting 3 12.2
2014-Oct-29 19:17 261 12.2
2014-Oct-29 19:12 261 12.2
2014-Oct-29 19:07 261 1 gusting 2 12.2
2014-Oct-29 19:02 261 12.2
2014-Oct-29 18:57 246 0 gusting 4 12.2
2014-Oct-29 18:52 246 0 gusting 3 12.2
2014-Oct-29 18:47 247 1 gusting 3 12.2
2014-Oct-29 18:42 247 12.2
2014-Oct-29 18:37 243 2 gusting 3 12.8
2014-Oct-29 18:32 243 12.8
2014-Oct-29 18:27 243 0 gusting 3 12.8
2014-Oct-29 18:22 249 2 gusting 4 12.8
2014-Oct-29 18:17 249 1 gusting 5 12.8
2014-Oct-29 18:12 248 2 gusting 4 12.8
2014-Oct-29 18:07 249 3 gusting 3 12.8
2014-Oct-29 18:02 249 1 gusting 3 12.8
2014-Oct-29 17:57 249 1 gusting 3 12.8
2014-Oct-29 17:52 249 2 gusting 2 12.8
2014-Oct-29 17:47 249 1 gusting 3 12.8
2014-Oct-29 17:42 311 12.8
2014-Oct-29 17:37 311 1 gusting 2 12.8
2014-Oct-29 17:32 322 12.8
2014-Oct-29 17:27 035 1 gusting 1 12.8
2014-Oct-29 17:22 035 12.8
2014-Oct-29 17:17 035 12.8
2014-Oct-29 17:12 035 12.8
2014-Oct-29 17:07 035 12.8
2014-Oct-29 17:02 035 12.8
2014-Oct-29 16:57 035 12.8
2014-Oct-29 16:52 035 0 gusting 0 12.8
2014-Oct-29 16:47 037 12.8
2014-Oct-29 16:42 037 12.8
2014-Oct-29 16:37 037 12.8
2014-Oct-29 16:32 037 12.8
2014-Oct-29 16:27 037 12.8
2014-Oct-29 16:22 037 12.8
2014-Oct-29 16:17 037 0 gusting 2 12.8
2014-Oct-29 16:12 037 12.8
2014-Oct-29 16:07 037 12.8
2014-Oct-29 16:02 037 12.8
2014-Oct-29 15:57 037 12.8
2014-Oct-29 15:52 037 12.8
2014-Oct-29 15:48 037 12.8
2014-Oct-29 15:42 037 0 gusting 3 12.8
2014-Oct-29 15:37 037 3 gusting 4 13.3
2014-Oct-29 15:32 044 13.3
2014-Oct-29 15:27 047 2 gusting 3 13.3
2014-Oct-29 15:22 039 2 gusting 3 13.3
2014-Oct-29 15:17 039 2 gusting 4 13.3
2014-Oct-29 15:12 046 2 gusting 3 13.3
2014-Oct-29 15:07 042 2 gusting 4 13.3
2014-Oct-29 15:02 061 3 gusting 4 13.3
2014-Oct-29 14:57 068 3 gusting 4 13.3
2014-Oct-29 14:52 050 2 gusting 4 13.3
2014-Oct-29 14:47 036 2 gusting 5 13.3
2014-Oct-29 14:42 042 2 gusting 5 13.3
2014-Oct-29 14:37 053 3 gusting 6 13.3
2014-Oct-29 14:32 071 3 gusting 6 13.3
2014-Oct-29 14:27 036 4 gusting 5 13.3
2014-Oct-29 14:22 046 3 gusting 6 13.9
2014-Oct-29 14:17 035 2 gusting 6 13.9
2014-Oct-29 14:12 052 5 gusting 6 13.9
2014-Oct-29 14:07 065 6 gusting 6 13.9
2014-Oct-29 14:02 032 2 gusting 6 13.9
2014-Oct-29 13:57 030 3 gusting 6 13.9
2014-Oct-29 13:52 046 4 gusting 7 13.9
2014-Oct-29 13:47 057 6 gusting 6 13.9
2014-Oct-29 13:42 036 2 gusting 6 13.9
2014-Oct-29 13:37 059 4 gusting 6 13.9
2014-Oct-29 13:32 033 5 gusting 6 13.9
2014-Oct-29 13:27 058 4 gusting 6 13.9
2014-Oct-29 13:22 057 3 gusting 6 14.4
2014-Oct-29 13:17 019 6 gusting 6 14.4
2014-Oct-29 13:12 043 4 gusting 6 15.0
2014-Oct-29 13:07 078 2 gusting 6 14.4
2014-Oct-29 13:02 052 5 gusting 6 14.4
2014-Oct-29 12:57 076 2 gusting 6 14.4
2014-Oct-29 12:52 044 2 gusting 6 14.4
2014-Oct-29 12:47 025 5 gusting 6 13.9
2014-Oct-29 12:42 046 3 gusting 8 14.4
2014-Oct-29 12:37 067 4 gusting 8 13.9
2014-Oct-29 12:32 084 1 gusting 6 13.9
2014-Oct-29 12:27 067 2 gusting 6 14.4
2014-Oct-29 12:22 046 3 gusting 6 14.4
2014-Oct-29 12:17 061 4 gusting 6 14.4
2014-Oct-29 12:12 048 3 gusting 6 14.4
2014-Oct-29 12:07 033 1 gusting 5 13.9
2014-Oct-29 12:02 049 2 gusting 6 14.4
2014-Oct-29 11:57 034 3 gusting 6 13.9
2014-Oct-29 11:52 090 1 gusting 5 13.9
2014-Oct-29 11:47 022 2 gusting 6 14.4
2014-Oct-29 11:42 074 2 gusting 6 14.4
2014-Oct-29 11:37 065 4 gusting 6 14.4
2014-Oct-29 11:32 039 4 gusting 6 14.4
2014-Oct-29 11:27 026 2 gusting 6 14.4
2014-Oct-29 11:22 009 4 gusting 6 14.4
2014-Oct-29 11:17 076 3 gusting 6 14.4
2014-Oct-29 11:12 012 2 gusting 6 14.4
2014-Oct-29 11:07 064 4 gusting 6 13.9
2014-Oct-29 11:02 049 3 gusting 7 13.9
2014-Oct-29 10:57 065 6 gusting 7 13.9
2014-Oct-29 10:52 028 2 gusting 5 13.9
2014-Oct-29 10:47 070 3 gusting 6 13.9
2014-Oct-29 10:42 036 13.9
2014-Oct-29 10:37 033 1 gusting 5 13.9
2014-Oct-29 10:32 075 3 gusting 5 13.9
2014-Oct-29 10:27 061 3 gusting 6 13.9
2014-Oct-29 10:22 067 4 gusting 6 13.9
2014-Oct-29 10:17 064 4 gusting 6 14.4
2014-Oct-29 10:12 012 2 gusting 4 13.9
2014-Oct-29 10:07 036 1 gusting 6 13.9
2014-Oct-29 09:57 060 3 gusting 6 13.9
2014-Oct-29 09:52 025 3 gusting 6 13.9
2014-Oct-29 09:47 032 2 gusting 6 13.9
2014-Oct-29 09:42 071 2 gusting 6 13.9
2014-Oct-29 09:37 022 5 gusting 6 14.4
2014-Oct-29 09:32 028 6 gusting 6 14.4
2014-Oct-29 09:27 065 15.0
2014-Oct-29 09:22 005 15.0
2014-Oct-29 09:17 038 3 gusting 5 15.0
2014-Oct-29 09:12 022 2 gusting 4 14.4
2014-Oct-29 09:07 021 13.9
2014-Oct-29 09:02 023 13.3
2014-Oct-29 08:57 028 3 gusting 4 13.3
2014-Oct-29 08:52 041 13.9
2014-Oct-29 08:47 017 1 gusting 4 13.9
2014-Oct-29 08:42 309 4 gusting 5 13.9
2014-Oct-29 08:37 286 13.3
2014-Oct-29 08:32 289 13.3
2014-Oct-29 08:27 291 12.8
2014-Oct-29 08:22 280 12.8
2014-Oct-29 08:17 262 0 gusting 4 12.8
2014-Oct-29 08:12 258 12.2
2014-Oct-29 08:07 265 2 gusting 2 12.2
2014-Oct-29 08:02 265 12.2
2014-Oct-29 07:57 265 0 gusting 2 11.7
2014-Oct-29 07:52 250 1 gusting 3 11.7
2014-Oct-29 07:47 259 1 gusting 4 11.7
2014-Oct-29 07:42 250 0 gusting 4 11.1
2014-Oct-29 07:37 260 0 gusting 4 11.1
2014-Oct-29 07:32 260 3 gusting 4 11.1
2014-Oct-29 07:27 260 3 gusting 4 11.1
2014-Oct-29 07:22 260 2 gusting 4 11.1
2014-Oct-29 07:17 260 2 gusting 3 11.1
2014-Oct-29 07:12 260 0 gusting 3 11.1
2014-Oct-29 07:07 263 2 gusting 3 10.6
2014-Oct-29 07:02 266 4 gusting 4 10.6
2014-Oct-29 06:57 266 4 gusting 4 10.6
2014-Oct-29 06:52 266 3 gusting 4 10.6
2014-Oct-29 06:47 266 3 gusting 4 10.6
2014-Oct-29 06:42 265 2 gusting 3 10.6
2014-Oct-29 06:37 265 0 gusting 3 10.6
2014-Oct-29 06:32 262 2 gusting 3 10.6
2014-Oct-29 06:27 262 2 gusting 4 10.6
2014-Oct-29 06:22 262 2 gusting 4 10.6
2014-Oct-29 06:17 247 2 gusting 3 10.6
2014-Oct-29 06:12 246 1 gusting 3 10.6
2014-Oct-29 06:07 246 2 gusting 3 10.6
2014-Oct-29 06:02 246 3 gusting 3 10.6